Regional Weather Roundup
Issued by NWS State College, PA

Home | Current Version | Previous Version | Text Only | Print | Product List | Glossary On
Versions: 1 2 3 4 5 6 7 8 9 10 11 12 13 14 15 16 17 18 19 20 21 22 23 24 25 26 27 28 29 30 31 32 33 34 35 36 37 38 39 40 41 42 43 44 45 46 47 48 49 50
000
ASUS41 KCTP 221810
RWRCTP

REGIONAL WEATHER ROUNDUP
NATIONAL WEATHER SERVICE STATE COLLEGE PA
100 PM EST SAT NOV 22 2014

Note: "fair" indicates few or no clouds below 12,000 feet with no
significant weather and/or obstructions to visibility.

* = STATION THAT DOES NOT REPORT PRECIPITATION /E.G. RAIN...SNOW...ETC/
    THUNDER OR FOG.

PAZ002>004-007>009-013>016-020>023-029>032-221900-
WESTERN PENNSYLVANIA

CITY           SKY/WX    TMP DP  RH WIND       PRES   REMARKS
ERIE           CLOUDY    40  34  79 S21G31    30.07F
MEADVILLE      LGT RAIN  34  32  92 S9G18     30.12F FOG
FRANKLIN*      CLOUDY    34  30  86 CALM      30.16F
NEW CASTLE       N/A     34  33  96 VRB5      30.19F
BEAVER COUNTY  CLOUDY    34  32  93 S12       30.18F
BUTLER*        CLOUDY    34  28  80 S13       30.21F
PITTSBURGH INT CLOUDY    37  32  82 SW12      30.20F
PITTSBURGH     CLOUDY    36  21  54 S12       30.21F
INDIANA*       CLOUDY    36  27  69 SW7       30.25F HAZE
LATROBE        LGT RAIN  41  23  48 S16       30.24F
WASHINGTON CO* CLOUDY    41  27  56 SW8G16    30.23F
$$

PAZ004>006-010>012-017>019-024>028-033>037-041-042-045-046-049>053-221900-
CENTRAL PENNSYLVANIA

CITY           SKY/WX    TMP DP  RH WIND       PRES   REMARKS
BRADFORD       FRZ RAIN  32  28  85 S12G17    30.11F FOG
DUBOIS         FRZ RAIN  33  30  88 SW7       30.16F FOG
CLEARFIELD     MIX PCPN  30  20  66 SW5       30.20F
JOHNSTOWN      LGT RAIN  39  18  42 S13       30.19F
ALTOONA        LGT RAIN  39  18  42 SW8       30.24F
STATE COLLEGE  CLOUDY    32  12  43 SW5       30.25F
WILLIAMSPORT   CLOUDY    35  13  40 CALM      30.29F
SELINSGROVE    CLOUDY    36  12  37 S10G18    30.32F
FT INDIANTOWN  CLOUDY    38  14  38 SW7       30.34F
CAPITAL CITY   CLOUDY    41  13  31 SW8       30.34F
HARRISBURG     CLOUDY    40  14  34 W5        30.34F
YORK           CLOUDY    43  13  29 SW8       30.34F
$$

PAZ038>040-043-044-047-048-054-055-060>062-067>071-221900-
EASTERN PENNSYLVANIA

CITY           SKY/WX    TMP DP  RH WIND       PRES   REMARKS
SCRANTON       MOSUNNY   40  11  30 W13       30.24F
MOUNT POCONO   SUNNY     36   8  31 SW9       30.22F
ALLENTOWN      SUNNY     42  11  28 SW10      30.32F
QUAKERTOWN*    CLEAR     41  12  30 SW12      30.33F
READING        PTSUNNY   43  13  29 S12       30.33F
LANCASTER      CLOUDY    41  13  31 SW12      30.34F
COATESVILLE    CLEAR     41  14  33 SW6       30.34F
POTTSTOWN      SUNNY     42  13  30 VRB7      30.36F
BLUE BELL      SUNNY     43  18  36 SW10G17   30.36F
DOYLESTOWN     SUNNY     39  14  36 S10G17    30.33F
WILLOW GROVE   NOT AVBL
NORTH PHILA    SUNNY     43  14  31 SW14G24   30.38F
PHILADELPHIA   MOSUNNY   43  17  35 SW17G26   30.39F
$$



USA.gov is the U.S. government's official web portal to all federal, state and local government web resources and services.